User: anonymous   Login
Location: Albany
(35.0000°S, 118.0000°E)
Time: 22:58:54
(UTC-05:00)
Language:

CZ-4B R/B - Orbit

View from above orbital plane
View from above orbital plane
View from above satellite
View from above satellite

Ground track
Ground track

The orbit data is extracted from the following two-line orbital elements,

1 33410U 08053C   15028.87621024  .00002671  00000-0  21147-3 0   505
2 33410 097.6143 004.1496 0125519 230.1615 128.8510 14.95436719340559
Epoch (UTC): 28 January 2015 21:01:44
Eccentricity: 0.0125519
inclination: 97.6143°
perigee height: 493 km
apogee height: 668 km
right ascension of ascending node: 4.1496°
argument of perigee: 230.1615°
revolutions per day: 14.95436719
mean anomaly at epoch: 128.8510°
orbit number at epoch: 34055

The dashed part of the orbit path shows where the satellite is in the earth's shadow,  

DLR